• In Hungary
  • List of Countries
  • For 7 days
  • Water Temperature
  • Satellite Maps
  • Weather Map
  • News
  • Weather Widgets
  • user-avatar
    Login

    Hourly Weather Verhnezundov

    Today, 20 May, Sunday

    Time Temperature Precipitation Wind Pressure Humidity
    00:00 +20°C° 0 mm 1 mps 750 mmHg 74%
    01:00 +19°C° 0 mm 1 mps 750 mmHg 75%
    02:00 +19°C° 0 mm 1 mps 750 mmHg 76%
    03:00 +19°C° 0 mm 1 mps 749 mmHg 76%
    04:00 +19°C° 0 mm 1 mps 750 mmHg 76%
    05:00 +20°C° 0 mm 1 mps 750 mmHg 75%
    06:00 +21°C° 0 mm 1 mps 750 mmHg 75%
    07:00 +22°C° 0 mm 1 mps 750 mmHg 68%
    08:00 +24°C° 0 mm 1 mps 750 mmHg 62%
    09:00 +26°C° 0 mm 2 mps 750 mmHg 56%
    10:00 +27°C° 0 mm 2 mps 750 mmHg 51%
    11:00 +28°C° 0 mm 2 mps 750 mmHg 46%
    12:00 +29°C° 0 mm 2 mps 750 mmHg 40%
    13:00 +29°C° 0 mm 2 mps 750 mmHg 40%
    14:00 +29°C° 0 mm 2 mps 750 mmHg 40%
    15:00 +30°C° 0 mm 2 mps 749 mmHg 40%
    16:00 +29°C° 0 mm 1 mps 749 mmHg 44%
    17:00 +29°C° 0 mm 1 mps 749 mmHg 48%
    18:00 +28°C° 0 mm 1 mps 749 mmHg 52%
    19:00 +26°C° 0.2 mm 2 mps 749 mmHg 58%
    20:00 +25°C° 0.2 mm 2 mps 749 mmHg 64%
    21:00 +22°C° 0.2 mm 3 mps 749 mmHg 70%
    22:00 +21°C° 1.1 mm 3 mps 749 mmHg 74%
    23:00 +20°C° 1.1 mm 2 mps 749 mmHg 78%

    Tomorrow, 21 May, Monday

    Time Temperature Precipitation Wind Pressure Humidity
    00:00 +20°C° 1.1 mm 2 mps 749 mmHg 82%
    01:00 +19°C° 0.3 mm 2 mps 749 mmHg 82%
    02:00 +19°C° 0.3 mm 2 mps 749 mmHg 82%
    03:00 +19°C° 0.3 mm 2 mps 749 mmHg 82%
    04:00 +19°C° 0.1 mm 2 mps 749 mmHg 81%
    05:00 +19°C° 0.1 mm 2 mps 749 mmHg 79%
    06:00 +20°C° 0.1 mm 2 mps 749 mmHg 78%
    07:00 +21°C° 0.1 mm 2 mps 750 mmHg 73%
    08:00 +24°C° 0.1 mm 2 mps 750 mmHg 67%
    09:00 +26°C° 0.1 mm 2 mps 750 mmHg 61%
    10:00 +26°C° 0.3 mm 2 mps 750 mmHg 59%
    11:00 +27°C° 0.3 mm 2 mps 750 mmHg 56%
    12:00 +28°C° 0.3 mm 2 mps 750 mmHg 54%
    13:00 +28°C° 0.3 mm 2 mps 751 mmHg 56%
    14:00 +27°C° 0.3 mm 2 mps 751 mmHg 58%
    15:00 +27°C° 0.3 mm 3 mps 751 mmHg 61%
    16:00 +27°C° 0 mm 2 mps 751 mmHg 63%
    17:00 +26°C° 0 mm 2 mps 751 mmHg 65%
    18:00 +26°C° 0 mm 1 mps 751 mmHg 68%
    19:00 +25°C° 0 mm 1 mps 751 mmHg 69%
    20:00 +24°C° 0 mm 1 mps 751 mmHg 70%
    21:00 +23°C° 0 mm 1 mps 751 mmHg 72%
    22:00 +21°C° 0 mm 2 mps 751 mmHg 73%
    23:00 +21°C° 0 mm 2 mps 751 mmHg 75%

    Day after tomorrow, 22 May, Tuesday

    Time Temperature Precipitation Wind Pressure Humidity
    00:00 +20°C° 0 mm 3 mps 751 mmHg 77%
    01:00 +20°C° 0 mm 3 mps 751 mmHg 78%
    02:00 +19°C° 0 mm 2 mps 751 mmHg 80%
    03:00 +19°C° 0 mm 2 mps 751 mmHg 82%
    04:00 +19°C° 0 mm 2 mps 751 mmHg 81%
    05:00 +19°C° 0 mm 2 mps 752 mmHg 81%
    06:00 +20°C° 0 mm 2 mps 752 mmHg 80%
    07:00 +21°C° 0 mm 2 mps 752 mmHg 74%
    08:00 +24°C° 0 mm 2 mps 752 mmHg 67%
    09:00 +26°C° 0 mm 3 mps 753 mmHg 61%
    10:00 +27°C° 0 mm 3 mps 753 mmHg 56%
    11:00 +28°C° 0 mm 3 mps 753 mmHg 51%
    12:00 +29°C° 0 mm 3 mps 753 mmHg 46%
    13:00 +30°C° 0 mm 3 mps 753 mmHg 45%
    14:00 +30°C° 0 mm 3 mps 753 mmHg 44%
    15:00 +30°C° 0 mm 3 mps 753 mmHg 43%
    16:00 +29°C° 0 mm 4 mps 752 mmHg 46%
    17:00 +29°C° 0 mm 4 mps 752 mmHg 50%
    18:00 +28°C° 0 mm 4 mps 752 mmHg 54%
    19:00 +26°C° 0 mm 4 mps 752 mmHg 54%
    20:00 +23°C° 0 mm 4 mps 752 mmHg 55%
    21:00 +22°C° 0 mm 4 mps 753 mmHg 55%
    22:00 +21°C° 0 mm 4 mps 753 mmHg 53%
    23:00 +20°C° 0 mm 4 mps 753 mmHg 51%

    23 May, Wednesday

    Time Temperature Precipitation Wind Pressure Humidity
    00:00 +20°C° 0 mm 3 mps 753 mmHg 50%
    01:00 +20°C° 0 mm 3 mps 752 mmHg 49%
    02:00 +20°C° 0 mm 3 mps 752 mmHg 49%
    03:00 +20°C° 0 mm 3 mps 752 mmHg 48%
    04:00 +20°C° 0 mm 3 mps 752 mmHg 50%
    05:00 +20°C° 0 mm 3 mps 752 mmHg 53%
    06:00 +20°C° 0 mm 3 mps 753 mmHg 55%
    07:00 +22°C° 0 mm 4 mps 753 mmHg 53%
    08:00 +23°C° 0 mm 4 mps 753 mmHg 50%
    09:00 +26°C° 0 mm 5 mps 753 mmHg 48%
    10:00 +27°C° 0 mm 5 mps 753 mmHg 43%
    11:00 +29°C° 0 mm 5 mps 753 mmHg 39%
    12:00 +32°C° 0 mm 6 mps 752 mmHg 34%
    13:00 +32°C° 0 mm 5 mps 752 mmHg 33%
    14:00 +33°C° 0 mm 5 mps 752 mmHg 31%
    15:00 +33°C° 0 mm 5 mps 751 mmHg 30%
    16:00 +33°C° 0 mm 5 mps 751 mmHg 33%
    17:00 +32°C° 0 mm 4 mps 751 mmHg 36%
    18:00 +30°C° 0 mm 3 mps 750 mmHg 39%
    19:00 +29°C° 0 mm 4 mps 750 mmHg 38%
    20:00 +27°C° 0 mm 5 mps 750 mmHg 36%
    21:00 +26°C° 0 mm 5 mps 750 mmHg 35%
    22:00 +25°C° 0 mm 5 mps 750 mmHg 34%
    23:00 +23°C° 0 mm 5 mps 750 mmHg 34%

    24 May, Thursday

    Time Temperature Precipitation Wind Pressure Humidity
    00:00 +22°C° 0 mm 5 mps 750 mmHg 34%
    01:00 +21°C° 0 mm 4 mps 750 mmHg 38%
    02:00 +20°C° 0 mm 4 mps 750 mmHg 43%
    03:00 +19°C° 0 mm 4 mps 750 mmHg 47%
    04:00 +19°C° 0 mm 4 mps 750 mmHg 53%
    05:00 +19°C° 0 mm 3 mps 750 mmHg 58%
    06:00 +19°C° 0 mm 3 mps 750 mmHg 63%
    07:00 +20°C° 0 mm 3 mps 750 mmHg 57%
    08:00 +22°C° 0 mm 4 mps 750 mmHg 51%
    09:00 +25°C° 0 mm 4 mps 750 mmHg 46%
    10:00 +27°C° 0 mm 5 mps 750 mmHg 43%
    11:00 +28°C° 0 mm 5 mps 749 mmHg 39%
    12:00 +29°C° 0 mm 6 mps 749 mmHg 36%
    13:00 +30°C° 0 mm 6 mps 749 mmHg 35%
    14:00 +32°C° 0 mm 6 mps 748 mmHg 33%
    15:00 +32°C° 0 mm 6 mps 748 mmHg 32%
    16:00 +30°C° 0 mm 5 mps 748 mmHg 36%
    17:00 +29°C° 0 mm 5 mps 748 mmHg 40%
    18:00 +29°C° 0 mm 4 mps 748 mmHg 44%
    19:00 +27°C° 0 mm 4 mps 748 mmHg 44%
    20:00 +25°C° 0 mm 4 mps 748 mmHg 43%
    21:00 +22°C° 0 mm 4 mps 748 mmHg 43%
    22:00 +21°C° 0 mm 4 mps 748 mmHg 43%
    23:00 +20°C° 0 mm 4 mps 748 mmHg 43%

    25 May, Friday

    Time Temperature Precipitation Wind Pressure Humidity
    00:00 +19°C° 0 mm 3 mps 748 mmHg 43%
    01:00 +19°C° 0 mm 3 mps 748 mmHg 44%
    02:00 +18°C° 0 mm 3 mps 748 mmHg 45%
    03:00 +17°C° 0 mm 2 mps 748 mmHg 46%
    04:00 +18°C° 0 mm 3 mps 748 mmHg 50%
    05:00 +18°C° 0 mm 3 mps 748 mmHg 53%
    06:00 +19°C° 0 mm 3 mps 748 mmHg 57%
    07:00 +21°C° 0 mm 3 mps 748 mmHg 52%
    08:00 +25°C° 0 mm 4 mps 749 mmHg 47%
    09:00 +27°C° 0 mm 4 mps 749 mmHg 42%
    10:00 +29°C° 0 mm 4 mps 749 mmHg 38%
    11:00 +30°C° 0 mm 5 mps 748 mmHg 33%
    12:00 +33°C° 0 mm 5 mps 748 mmHg 29%
    13:00 +33°C° 0 mm 5 mps 748 mmHg 28%
    14:00 +34°C° 0 mm 5 mps 748 mmHg 27%
    15:00 +34°C° 0 mm 5 mps 748 mmHg 27%
    16:00 +33°C° 0 mm 4 mps 748 mmHg 31%
    17:00 +32°C° 0 mm 4 mps 748 mmHg 36%
    18:00 +30°C° 0 mm 4 mps 748 mmHg 41%
    19:00 +28°C° 0 mm 4 mps 748 mmHg 41%
    20:00 +27°C° 0 mm 5 mps 748 mmHg 40%
    21:00 +24°C° 0 mm 6 mps 749 mmHg 39%
    22:00 +26°C° 0 mm 6 mps 749 mmHg 38%
    23:00 +26°C° 0 mm 6 mps 749 mmHg 37%
    Show more